Regional Weather Roundup
Issued by NWS

Home | Current Version | Previous Version | Graphics & Text | Print | Product List | Glossary On
Versions: 1 2 3 4 5 6 7 8 9 10 11 12 13 14 15 16 17 18 19 20 21 22 23 24 25 26 27 28 29 30 31 32 33 34 35 36 37 38 39 40 41 42 43 44 45 46 47 48 49 50
000
ASUS43 KFSD 210510
RWRSD

WEATHER ROUNDUP FOR SOUTH DAKOTA
NATIONAL WEATHER SERVICE SIOUX FALLS SD
1200 AM CDT SUN SEP 21 2014

NOTE: "FAIR" INDICATES FEW OR NO CLOUDS BELOW 12,000 FEET WITH NO
SIGNIFICANT WEATHER AND/OR OBSTRUCTIONS TO VISIBILITY.


SDZ001>005-009-010-012>017-210600-
NORTHWEST AND NORTH CENTRAL SOUTH DAKOTA

CITY           SKY/WX    TMP DP  RH WIND       PRES   REMARKS
BUFFALO          N/A     52  36  54 N18       30.19R
FAITH            N/A     51  37  58 NW12      30.21R
MOBRIDGE       CLEAR     54  44  69 NW6       30.12R
$$

SDZ012>016-024>037-041>051-057-063-072>074-210600-
SOUTHWEST AND SOUTH CENTRAL SOUTH DAKOTA

CITY           SKY/WX    TMP DP  RH WIND       PRES   REMARKS
RAPID CTY ARPT CLEAR     55  39  54 N12       30.26R
PIERRE         CLEAR     52  43  71 NW9       30.14R
CUSTER         CLEAR     47  33  58 W3        30.35R
ELLSWORTH AFB  CLEAR     57  38  50 NW10      30.26R
PHILIP         CLEAR     51  39  63 NW10      30.20R
PINE RIDGE     CLEAR     46  41  82 NE3       30.27R
WINNER         FAIR      55  39  54 NW9       30.16R
$$

SDZ004>011-016>023-039-040-210600-
NORTHEAST SOUTH DAKOTA

CITY           SKY/WX    TMP DP  RH WIND       PRES   REMARKS
ABERDEEN       CLEAR     59  41  51 NW14      30.07R
WATERTOWN      CLEAR     58  45  62 NW12      30.02R
SISSETON         N/A     60  44  55 NW17G24   29.97R
$$

SDZ017-020-022-023-036>040-048>070-210600-
SOUTHEAST SOUTH DAKOTA

CITY           SKY/WX    TMP DP  RH WIND       PRES   REMARKS
SIOUX FALLS    CLEAR     57  47  69 W9        30.04S
HURON          CLEAR     54  41  61 NW9       30.07R
CHAMBERLAIN    CLEAR     53  40  63 NW6       30.14R
MITCHELL       CLEAR     56  43  61 W8        30.08R
YANKTON        CLEAR     55  46  71 W6        30.09R
$$

ABBREVIATIONS USED IN REMARKS
   TC - TEMPERATURE IN CELSIUS
  WCI - WIND CHILL INDEX
   HX - HEAT INDEX
  VSB - VISIBILITY



USA.gov is the U.S. government's official web portal to all federal, state and local government web resources and services.